STARLINK-34029, 63805

Orbit data source: Space-Track

STARLINK-34029, 63805 is a payload satellite owned by SpaceX/Seattle (US) in LEO that was launched on Sun, 04 May 2025 UTC via an FALCON 9 launch vehicle from the Air Force Eastern Test Range (AFETR). Payload-class satellites include a variety of spacecraft equipped with specific instruments for various scientific and technological missions. These include communications satellites like Starlink; space stations such as the ISS; scientific satellites like the Hubble; Earth observation satellites from companies like Planet Labs, Umbra, and HawkEye 360; GPS; miniature CubeSats for education and research; and military/defense satellites.

Loading next visibility...
Identifier
63805, 2025-092B
Orbit
LEO
Country
Flag of USUS
Related business
Manufacturer
SpaceX/Seattle
Mission
Operational Commercial Communications
Bus & Motor
STARLINK V2MO, Unknown motor
Mass
575 kg wet, ~530 kg dry
Launch date (UTC)
2025-05-04 (6 months ago)
Launch vehicle
FALCON 9
Launch site
Air Force Eastern Test Range (AFETR)
Object type
Payload
Rocket body
Debris
Shape & HBR
Box + 2 Pan, 17.7 m
Radar Cross Section
36.964 m², Large (>1 m²)

Expand to show TLE details & history
Last TLE update: 12 hours ago

TLE from 12 hours ago
0 STARLINK-34029
1 63805U 25092B   25302.41396169  .00030965  00000-0  11285-2 0  9993
2 63805  42.9978 194.2774 0002344 278.8791  81.1795 15.27624278 28535
Epoch: 2025-10-29T09:56Z
TLE epoch observation values (Epoch: 2025-10-29T09:56:06.290Z)
Latitude
-0.00001°
Longitude
7.26373°
Altitude
482.445 km
Speed
7.626 km/s
True Right ascension
12h 57m 06s
True Declination
0° 00' 00"
Sunlit
Object was in daylight at epoch
Visualization orbit readout
Latitude
Unknown
Longitude
Unknown
Altitude
Unknown
Speed
Unknown
Apparent Right ascension
Unknown
Apparent Declination
Unknown
Sunlit
N/A
Visualization observer readout
Local Sidereal Time
17:31:12
Azimuth
Unknown
Elevation
Unknown
Doppler factor
Unknown
Orbital elements
Apogee altitude
486.471 km
Perigee altitude
483.253 km
Semi-major axis
6,862.999 km
Eccentricity
0.00023
Inclination
42.9978°
RAAN
194.2774°
Arg. of periapsis
278.8791°
True anomaly
81.20604°
Mean anomaly
81.1795°
Eccentric anomaly
81.19277°
Mean motion
3.81744 °/min
Orbital period
94.3 mins
BSTAR
0.0011285
Loading maneuver chart data...
Computing Atmospheric mass density...
Loading historical data...
Loading historical data...
Loading historical data...
Loading historical data...
Loading historical data...
Loading historical data...
Loading historical data...

Documentation

Showing up to 5 results
|